Regional Weather Roundup
Issued by NWS Goodland, KS

Home | Current Version | Previous Version | Text Only | Print | Product List | Glossary On
Versions: 1 2 3 4 5 6 7 8 9 10 11 12 13 14 15 16 17 18 19 20 21 22 23 24 25 26 27 28 29 30 31 32 33 34 35 36 37 38 39 40 41 42 43 44 45 46 47 48 49 50
000
ASUS43 KGLD 250508
RWRGLD

GOODLAND FORECAST AREA HOURLY WEATHER ROUNDUP
NATIONAL WEATHER SERVICE GOODLAND KS
1100 PM MDT SAT SEP 24 2016

...OFFICIAL OBSERVATIONS...

CITY           SKY/WX    TMP DP  RH WIND       PRES   REMARKS
GOODLAND KS    CLOUDY    58  41  53 N15       30.16R
HILL CITY KS   CLOUDY    56  52  86 CALM      30.04R
IMPERIAL NEB   CLEAR     57  40  52 N15       30.16R
MCCOOK NEB     CLEAR     60  41  49 N18       30.09R
AKRON CO       CLEAR     47  37  68 N12       30.25R
BURLINGTON CO  CLOUDY    57  39  51 N14       30.20R
LIMON CO       CLEAR     50  35  56 N15       30.26R
$$

...UNOFFICIAL OBSERVATIONS...

CITY           SKY/WX    TMP DP  RH WIND       PRES   REMARKS
COLBY KS       CLEAR     55  45  67 NW14      30.14R
LENORA KS        N/A     60  32  34 MISG        N/A
NORTON KS      CLEAR     54  43  66 W5        30.04R
SHARON SPRINGS   N/A     54  42  65 NW5         N/A
KIT CARSON CO    N/A     56  40  55 MISG        N/A
$$




USA.gov is the U.S. government's official web portal to all federal, state and local government web resources and services.